This is the latest recevied weather packets stored in our database for station/object KQ4JKJ. If no packets are shown the sender has not sent any weather packets the latest 10 day(s).
| Time | Temp. | Humidity | Pressure | Rain* | Wind** | Luminosity | Snow |
|---|---|---|---|---|---|---|---|
| 1777939338 | 22.78° C | 72% | 1009.8 hPa | 0 mm | - | 2 W/m² | - |
| 1777939034 | 22.78° C | 72% | 1009.8 hPa | 0 mm | - | 4 W/m² | - |
| 1777938730 | 22.78° C | 72% | 1009.9 hPa | 0 mm | - | 6 W/m² | - |
| 1777938428 | 22.78° C | 72% | 1009.8 hPa | 0 mm | - | 9 W/m² | - |
| 1777938125 | 22.78° C | 72% | 1009.7 hPa | 0 mm | - | 13 W/m² | - |
| 1777937821 | 22.78° C | 72% | 1009.8 hPa | 0 mm | - | 16 W/m² | - |
| 1777937517 | 22.78° C | 71% | 1009.7 hPa | 0 mm | - | 20 W/m² | - |
| 1777937214 | 23.33° C | 71% | 1009.7 hPa | 0 mm | - | 22 W/m² | - |
| 1777936911 | 23.33° C | 72% | 1009.5 hPa | 0 mm | - | 25 W/m² | - |
| 1777936608 | 23.33° C | 71% | 1009.6 hPa | 0 mm | - | 28 W/m² | - |
| 1777936304 | 23.33° C | 70% | 1009.6 hPa | 0 mm | - | 30 W/m² | - |
| 1777936000 | 23.33° C | 70% | 1009.6 hPa | 0 mm | - | 32 W/m² | - |
| 1777935699 | 23.89° C | 69% | 1009.7 hPa | 0 mm | - | 36 W/m² | - |
| 1777935398 | 23.89° C | 70% | 1009.7 hPa | 0 mm | - | 44 W/m² | - |
| 1777935093 | 23.89° C | 69% | 1009.8 hPa | 0 mm | - | 58 W/m² | - |
| 1777934790 | 23.89° C | 69% | 1010 hPa | 0 mm | - | 66 W/m² | - |
| 1777934487 | 23.89° C | 69% | 1009.8 hPa | 0 mm | - | 50 W/m² | - |
| 1777934184 | 23.89° C | 68% | 1009.6 hPa | 0 mm | - | 62 W/m² | - |
| 1777933880 | 23.89° C | 69% | 1009.5 hPa | 0 mm | - | 87 W/m² | - |
| 1777933577 | 23.89° C | 68% | 1009.6 hPa | 0 mm | - | 72 W/m² | - |
| 1777933274 | 24.44° C | 68% | 1009.8 hPa | 0 mm | - | 83 W/m² | - |
| 1777932971 | 24.44° C | 67% | 1009.8 hPa | 0 mm | - | 75 W/m² | - |
| 1777932668 | 24.44° C | 67% | 1009.7 hPa | 0 mm | - | 99 W/m² | - |
| 1777932364 | 24.44° C | 67% | 1009.6 hPa | 0 mm | - | 83 W/m² | - |
| 1777932062 | 24.44° C | 67% | 1009.7 hPa | 0 mm | - | 83 W/m² | - |
* Rain latest hour (hover to see other rain measurements)
** Current wind speed in m/s (hover to see current wind gust speed)